Tracking 30744 objects as of 24-Jun-2025
HD Live streaming from Space Station
objects crossing your sky now

CZ-4B DEB

Track CZ-4B DEB now!
10-day predictions


NORAD ID: 29536
Int'l Code: 2006-015C
Perigee: 555.4 km
Apogee: 701.1 km
Inclination: 97.8 °
Period: 97.1 minutes
Semi major axis: 6999 km
RCS: 0.0177 m2 (small)
Launch date: April 26, 2006
Source: People's Republic of China (PRC)
Launch site: Taiyaun Space Center, China (TSC)

Note: This is SATELLITE DEBRIS
Your satellite tracking list
Your tracking list is empty




NASA's NSSDC Master Catalog

Two Line Element Set (TLE):
1 29536U 06015C   25174.84561828  .00007916  00000-0  90005-3 0  9998
2 29536  97.8325 132.8785 0104048  61.5528 299.6122 14.82613141 10631
Source of the keplerian elements: AFSPC